{"data":{"norad_id":63165,"intl_designator":"2025-046G","name":"QIANFAN-79","alt_names":[],"object_type":"PAYLOAD","status":"ACTIVE","operator":null,"country":"PRC","launch_date":"2025-03-11","launch_site_code":"WSC","launch_vehicle":null,"mission":null,"orbit_class":"UNKNOWN","rcs_meters":null,"size_class":null,"mass_kg":null,"dimensions":null,"purposes":[],"wikipedia_slug":null,"has_3d_model":false,"image_url":null,"decayed_at":null,"tle_current":{"epoch":"2026-09-22T21:30:02.504448Z","epoch_age_seconds":103839,"freshness":"FRESH","line1":"1 63165U 25046G   26265.89586232  .00000023  00000+0  17415-4 0  9998","line2":"2 63165  88.9644 290.6013 0015639  34.1630 326.0524 13.51021195 85748","mean_motion":13.51021195,"eccentricity":0.0015639,"inclination_deg":88.9644,"raan_deg":290.6013,"arg_perigee_deg":34.163,"mean_anomaly_deg":326.0524,"bstar":1.7415e-5,"rev_number":8574,"period_min":106.58604064313,"perigee_km":1056.8579002412,"apogee_km":1080.1495030278,"semimajor_km":7446.6407016345,"source":"CELESTRAK","updated_at":"2026-09-23T09:00:21.847637Z"}}}